Location: Étavigny
(49.1201°N, 2.9800°E)
Time: 23:08:02
(UTC+00:00)

Okean O Rocket - Pass Details

Date: 28 January 2023
Orbit: 620 x 643 km, 98.1° (Epoch: 21 March)

Event Time Altitude Azimuth Distance (km) Brightness Sun altitude
Rises 17:11:28 0° 109° (ESE) 2,915 4.5 -5.8°
Reaches altitude 10° 17:14:52 10° 80° (E) 2,019 3.5 -6.4°
Maximum altitude 17:16:40 12° 55° (NE) 1,867 3.4 -6.6°
Drops below altitude 10° 17:18:28 10° 31° (NNE) 2,030 3.7 -6.9°
Sets 17:21:55 0° 2° (N) 2,951 4.8 -7.5°
